Regional Weather Roundup
Issued by NWS Kansas City/Pleasant Hill, MO

Home | Current Version | Previous Version | Graphics & Text | Print | Product List | Glossary Off
Versions: 1 2 3 4 5 6 7 8 9 10 11 12 13 14 15 16 17 18 19 20 21 22 23 24 25 26 27 28 29 30 31 32 33 34 35 36 37 38 39 40 41 42 43 44 45 46 47 48 49 50

000
ASUS43 KEAX 252104
RWREAX

WEATHER ROUNDUP FOR EASTERN KANSAS AND NORTHWEST MISSOURI
NATIONAL WEATHER SERVICE KANSAS CITY/PLEASANT HILL MO
400 PM CDT SAT APR 25 2015

KSZ040-057-103>105-MOZ028-029-037-043-252200-
...KANSAS CITY METROPOLITAN AREA...

CITY           SKY/WX    TMP DP  RH WIND       PRES   REMARKS
K.C. INTL      CLOUDY    54  52  93 N15       29.61R
K.C. DOWNTOWN  CLOUDY    58  53  84 N13       29.60R
LEES SUMMIT    CLOUDY    58  54  86 N14       29.59R
OLATHE - IXD   CLOUDY    60  55  83 NW18      29.61R
OLATHE - OJC   CLOUDY    61  55  81 N14       29.59R
LAWRENCE       CLOUDY    60  54  80 NW18      29.62R

$$

MOZ001>008-011>017-020>025-030>033-038>040-044>046-053-054-252200-
...NORTHERN AND CENTRAL MISSOURI...

CITY           SKY/WX    TMP DP  RH WIND       PRES   REMARKS
ST. JOSEPH     CLOUDY    52  48  86 N12       29.65R
MOSBY          CLOUDY    54  52  94 N17       29.59R
WARRENSBURG    CLOUDY    61  54  77 N14G20    29.55R
WHITEMAN AFB   CLOUDY    63  58  82 N18       29.53R
CLINTON        DRIZZLE   66  59  77 NW12      29.54R
SEDALIA        RAIN      63  58  83 NW10      29.54R
WARSAW         NOT AVBL
MARSHALL       CLOUDY    59  55  88 N16       29.56R
CHILLICOTHE      N/A     52  50  93 N12G18    29.62R
MOBERLY        DRIZZLE   55  52  88 NE13      29.56R
KIRKSVILLE     LGT RAIN  52  51  97 N21G26    29.60R FOG

$$

MOZ041-047>049-056>058-063>065-088>090-097-252200-
...EASTERN AND SOUTHERN MISSOURI...

CITY           SKY/WX    TMP DP  RH WIND       PRES   REMARKS
ST. LOUIS INTL CLOUDY    62  57  83 NE10      29.51R HAZE
SPIRIT OF STL  LGT RAIN  64  60  87 N12G22    29.50R FOG
COLUMBIA       LGT RAIN  63  58  83 NW13      29.51R
JEFFERSON CITY LGT RAIN  67  56  67 W13       29.50R
HANNIBAL       CLOUDY    55  54  94 NE7       29.56R FOG
ROLLA          CLOUDY    66  53  63 W12G18    29.51R
OSAGE BEACH    CLOUDY    66  54  63 W13G18    29.53R
SPRINGFIELD    CLOUDY    72  52  49 W17G25    29.54S
BRANSON        MOSUNNY   77  50  38 NW16G23   29.55F
NEVADA         PTSUNNY   70  55  60 W18G24    29.57R
JOPLIN         SUNNY     75  55  49 W20G28    29.56S
WEST PLAINS    MOSUNNY   78  48  34 W16G26    29.52S

$$

IAZ060-094-KSZ022-034>040-054-083-096-NEZ052-066-093-252200-
...KANSAS...SOUTHEAST NEBRASKA AND IOWA...

CITY           SKY/WX    TMP DP  RH WIND       PRES   REMARKS
TOPEKA         CLOUDY    57  54  89 N14       29.64R
MANHATTAN      CLOUDY    58  53  84 N9        29.66S
EMPORIA        PTSUNNY   66  55  67 NW16G23   29.62R
CHANUTE        CLOUDY    71  54  54 NW20G26   29.59R
WICHITA        MOSUNNY   74  54  49 N15       29.62S
OMAHA          CLOUDY    53  46  77 NE10      29.71R
LINCOLN        CLOUDY    52  47  83 NE14      29.72R
FALLS CITY     CLOUDY    51  48  89 N7        29.67R
LAMONI         CLOUDY    48  46  93 NE15      29.65R FOG
DES MOINES     CLOUDY    50  45  83 NE14      29.71R

$$




USA.gov is the U.S. government's official web portal to all federal, state and local government web resources and services.